{"data":{"norad_id":58465,"epoch":"2026-05-25T05:47:41.747424Z","epoch_age_seconds":50345,"freshness":"FRESH","line1":"1 58465U 23185D   26145.24145541  .00340888  46889-4  95314-3 0  9996","line2":"2 58465  97.3358 232.6007 0006962 217.6194 142.4595 15.93598542139170","mean_motion":15.93598542,"eccentricity":0.0006962,"inclination_deg":97.3358,"raan_deg":232.6007,"arg_perigee_deg":217.6194,"mean_anomaly_deg":142.4595,"bstar":0.00095314,"rev_number":13917,"period_min":90.361528455766,"perigee_km":287.57835911917,"apogee_km":296.8661673573,"semimajor_km":6670.3592632382,"source":"CELESTRAK","updated_at":"2026-05-25T13:38:00.765033Z"}}